RYR7499 LEVC-LEMH

Flight info

Callsign RYR7499
Flight time 0h 40m
Altitude 24000
Route ORVUS M871 PTC
Aircraft B738/M-SDE2E3FGHIRWXY/LB1

Departure

Time 2026-04-15 15:29
Airport Valencia Airport (LEVC)

Arrival

Time 2026-04-15 16:09
Airport Menorca Airport (LEMH)
Time Latitude Longitude Altitude Speed Heading
2026-04-15 14:57 39.49065 -0.47442 208 ft 0 kts 39°
2026-04-15 15:16 39.49064 -0.47443 208 ft 2 kts 39°
2026-04-15 15:17 39.49043 -0.47463 218 ft 4 kts 30°
2026-04-15 15:17 39.49019 -0.47476 214 ft 4 kts
2026-04-15 15:17 39.48998 -0.47471 212 ft 3 kts 301°
2026-04-15 15:17 39.48996 -0.47468 213 ft 1 kts 295°
2026-04-15 15:22 39.49001 -0.47482 210 ft 3 kts 295°
2026-04-15 15:22 39.49010 -0.47506 213 ft 5 kts 295°
2026-04-15 15:22 39.49035 -0.47575 214 ft 14 kts 296°
2026-04-15 15:23 39.49055 -0.47705 213 ft 15 kts 254°
2026-04-15 15:23 39.49029 -0.47836 215 ft 15 kts 261°
2026-04-15 15:23 39.49060 -0.47972 211 ft 19 kts 297°
2026-04-15 15:23 39.49127 -0.48149 211 ft 24 kts 296°
2026-04-15 15:24 39.49206 -0.48357 215 ft 27 kts 296°
2026-04-15 15:24 39.49287 -0.48566 213 ft 19 kts 296°
2026-04-15 15:24 39.49343 -0.48717 216 ft 18 kts 296°
2026-04-15 15:24 39.49399 -0.48864 213 ft 18 kts 296°
2026-04-15 15:25 39.49453 -0.49005 212 ft 17 kts 296°
2026-04-15 15:25 39.49506 -0.49141 209 ft 17 kts 296°
2026-04-15 15:25 39.49555 -0.49273 210 ft 16 kts 295°
2026-04-15 15:25 39.49608 -0.49410 213 ft 19 kts 297°
2026-04-15 15:26 39.49668 -0.49568 208 ft 19 kts 296°
2026-04-15 15:26 39.49729 -0.49729 212 ft 21 kts 295°
2026-04-15 15:26 39.49791 -0.49894 212 ft 20 kts 292°
2026-04-15 15:26 39.49741 -0.49991 209 ft 7 kts 205°
2026-04-15 15:27 39.49696 -0.50018 211 ft 7 kts 205°
2026-04-15 15:27 39.49631 -0.49997 211 ft 13 kts 119°
2026-04-15 15:27 39.49626 -0.49984 211 ft 0 kts 117°
2026-04-15 15:27 39.49623 -0.49976 211 ft 6 kts 117°
2026-04-15 15:28 39.49580 -0.49865 215 ft 42 kts 116°
2026-04-15 15:28 39.49348 -0.49254 213 ft 107 kts 117°
2026-04-15 15:28 39.48952 -0.48200 315 ft 144 kts 115°
2026-04-15 15:28 39.48497 -0.47001 783 ft 155 kts 116°
2026-04-15 15:29 39.47955 -0.45662 1112 ft 179 kts 118°
2026-04-15 15:29 39.47371 -0.44253 1896 ft 171 kts 122°
2026-04-15 15:29 39.46487 -0.43128 2421 ft 198 kts 154°
2026-04-15 15:29 39.45110 -0.42404 2699 ft 228 kts 147°
2026-04-15 15:30 39.44098 -0.40754 3162 ft 252 kts 116°
2026-04-15 15:30 39.43297 -0.38642 3796 ft 269 kts 119°
2026-04-15 15:30 39.42336 -0.36538 4699 ft 275 kts 122°
2026-04-15 15:30 39.41274 -0.34419 5500 ft 286 kts 122°
2026-04-15 15:31 39.40157 -0.32268 6457 ft 288 kts 122°
2026-04-15 15:31 39.39378 -0.29897 7305 ft 289 kts 96°
2026-04-15 15:31 39.39146 -0.27317 8224 ft 290 kts 93°
2026-04-15 15:31 39.38948 -0.24737 9119 ft 294 kts 93°
2026-04-15 15:32 39.38747 -0.22087 9988 ft 299 kts 93°
2026-04-15 15:32 39.38538 -0.19376 10628 ft 311 kts 93°
2026-04-15 15:32 39.38312 -0.16476 10865 ft 337 kts 93°
2026-04-15 15:32 39.38065 -0.13414 11469 ft 347 kts 93°
2026-04-15 15:33 39.37808 -0.10303 12298 ft 349 kts 93°
2026-04-15 15:33 39.37546 -0.07174 13190 ft 351 kts 93°
2026-04-15 15:33 39.37280 -0.04033 14013 ft 354 kts 93°
2026-04-15 15:33 39.37011 -0.00850 14720 ft 358 kts 93°
2026-04-15 15:34 39.36738 0.02373 15393 ft 364 kts 93°
2026-04-15 15:34 39.36459 0.05646 16088 ft 369 kts 93°
2026-04-15 15:34 39.36176 0.08954 16788 ft 372 kts 93°
2026-04-15 15:34 39.35889 0.12297 17486 ft 377 kts 93°
2026-04-15 15:35 39.35598 0.15683 18164 ft 381 kts 93°
2026-04-15 15:35 39.35302 0.19113 18793 ft 386 kts 93°
2026-04-15 15:35 39.35002 0.22571 19407 ft 389 kts 93°
2026-04-15 15:35 39.34699 0.26038 20156 ft 388 kts 93°
2026-04-15 15:36 39.34397 0.29489 20930 ft 386 kts 93°
2026-04-15 15:36 39.34095 0.32935 21644 ft 387 kts 93°
2026-04-15 15:36 39.33792 0.36396 22318 ft 388 kts 93°
2026-04-15 15:36 39.33487 0.39854 23032 ft 388 kts 93°
2026-04-15 15:37 39.33193 0.43317 23772 ft 387 kts 90°
2026-04-15 15:37 39.33148 0.46794 24087 ft 387 kts 84°
2026-04-15 15:37 39.33297 0.50248 24120 ft 384 kts 82°
2026-04-15 15:37 39.33510 0.53683 24152 ft 386 kts 81°
2026-04-15 15:38 39.33736 0.57202 24171 ft 401 kts 82°
2026-04-15 15:38 39.33955 0.60864 24169 ft 416 kts 82°
2026-04-15 15:38 39.34160 0.64650 24178 ft 430 kts 83°
2026-04-15 15:38 39.34352 0.68565 24179 ft 442 kts 83°
2026-04-15 15:39 39.34534 0.72575 24174 ft 453 kts 83°
2026-04-15 15:39 39.34713 0.76685 24189 ft 463 kts 83°
2026-04-15 15:39 39.34891 0.80875 24173 ft 472 kts 83°
2026-04-15 15:39 39.35070 0.85143 24159 ft 479 kts 83°
2026-04-15 15:40 39.35250 0.89463 24169 ft 485 kts 83°
2026-04-15 15:40 39.35431 0.93840 24162 ft 490 kts 84°
2026-04-15 15:40 39.35612 0.98256 24157 ft 492 kts 84°
2026-04-15 15:40 39.35791 1.02655 24149 ft 490 kts 84°
2026-04-15 15:41 39.35969 1.07050 24162 ft 489 kts 84°
2026-04-15 15:41 39.36145 1.11441 24164 ft 489 kts 84°
2026-04-15 15:41 39.36320 1.15819 24176 ft 488 kts 83°
2026-04-15 15:41 39.36494 1.20208 24175 ft 488 kts 83°
2026-04-15 15:42 39.36666 1.24585 24168 ft 488 kts 83°
2026-04-15 15:42 39.36836 1.28960 24166 ft 487 kts 83°
2026-04-15 15:42 39.37005 1.33327 24170 ft 487 kts 83°
2026-04-15 15:42 39.37172 1.37703 24164 ft 487 kts 83°
2026-04-15 15:43 39.37338 1.42075 24168 ft 487 kts 83°
2026-04-15 15:43 39.37497 1.46390 24171 ft 487 kts 83°
2026-04-15 15:43 39.37656 1.50762 24172 ft 487 kts 83°
2026-04-15 15:43 39.37813 1.55130 24186 ft 487 kts 83°
2026-04-15 15:44 39.37969 1.59506 24179 ft 487 kts 83°
2026-04-15 15:44 39.38123 1.63878 24173 ft 487 kts 83°
2026-04-15 15:44 39.38275 1.68249 24173 ft 487 kts 83°
2026-04-15 15:44 39.38426 1.72617 24173 ft 487 kts 83°
2026-04-15 15:45 39.38576 1.76985 24172 ft 486 kts 83°
2026-04-15 15:45 39.38724 1.81354 24171 ft 486 kts 83°
2026-04-15 15:45 39.38870 1.85720 24175 ft 486 kts 83°
2026-04-15 15:45 39.39015 1.90084 24174 ft 486 kts 83°
2026-04-15 15:46 39.39157 1.94451 24187 ft 486 kts 83°
2026-04-15 15:46 39.39298 1.98811 24184 ft 485 kts 83°
2026-04-15 15:46 39.39438 2.03168 24178 ft 485 kts 83°
2026-04-15 15:46 39.39575 2.07520 24175 ft 484 kts 83°
2026-04-15 15:47 39.39711 2.11870 24176 ft 484 kts 83°
2026-04-15 15:47 39.39845 2.16217 24176 ft 484 kts 83°
2026-04-15 15:47 39.39978 2.20553 24176 ft 483 kts 83°
2026-04-15 15:47 39.40109 2.24897 24176 ft 483 kts 83°
2026-04-15 15:48 39.40238 2.29240 24190 ft 483 kts 83°
2026-04-15 15:48 39.40365 2.33569 24184 ft 483 kts 83°
2026-04-15 15:48 39.40491 2.37895 24167 ft 475 kts 83°
2026-04-15 15:48 39.40605 2.42057 24147 ft 454 kts 83°
2026-04-15 15:49 39.40714 2.46083 23841 ft 442 kts 83°
2026-04-15 15:49 39.40821 2.50003 23458 ft 432 kts 82°
2026-04-15 15:49 39.40927 2.53847 23049 ft 424 kts 82°
2026-04-15 15:49 39.41031 2.57622 22631 ft 418 kts 82°
2026-04-15 15:50 39.41134 2.61347 22234 ft 412 kts 82°
2026-04-15 15:50 39.41234 2.65027 21845 ft 409 kts 83°
2026-04-15 15:50 39.41336 2.68716 21482 ft 412 kts 83°
2026-04-15 15:50 39.41436 2.72435 21077 ft 413 kts 83°
2026-04-15 15:51 39.41532 2.76124 20673 ft 408 kts 83°
2026-04-15 15:51 39.41624 2.79772 20273 ft 405 kts 83°
2026-04-15 15:51 39.41714 2.83390 19904 ft 401 kts 83°
2026-04-15 15:51 39.41804 2.86989 19521 ft 398 kts 83°
2026-04-15 15:52 39.41891 2.90553 19142 ft 396 kts 83°
2026-04-15 15:52 39.41978 2.94106 18765 ft 394 kts 83°
2026-04-15 15:52 39.42063 2.97634 18373 ft 392 kts 83°
2026-04-15 15:52 39.42146 3.01146 17943 ft 390 kts 84°
2026-04-15 15:53 39.42228 3.04636 17528 ft 386 kts 84°
2026-04-15 15:53 39.42307 3.08087 17128 ft 382 kts 83°
2026-04-15 15:53 39.42384 3.11454 16627 ft 378 kts 84°
2026-04-15 15:53 39.42462 3.14885 16072 ft 376 kts 84°
2026-04-15 15:54 39.42513 3.17125 15721 ft 375 kts 84°
2026-04-15 15:54 39.42611 3.21575 15020 ft 373 kts 85°
2026-04-15 15:54 39.42660 3.23834 14703 ft 371 kts 85°
2026-04-15 15:54 39.43144 3.28137 14098 ft 361 kts 70°
2026-04-15 15:55 39.43901 3.31215 13628 ft 358 kts 69°
2026-04-15 15:55 39.44427 3.33276 13366 ft 356 kts 69°
2026-04-15 15:55 39.45195 3.36272 12987 ft 355 kts 69°
2026-04-15 15:55 39.45959 3.39291 12612 ft 352 kts 69°
2026-04-15 15:56 39.46706 3.42287 12244 ft 347 kts 69°
2026-04-15 15:56 39.47432 3.45236 11887 ft 341 kts 70°
2026-04-15 15:56 39.48134 3.48114 11532 ft 329 kts 70°
2026-04-15 15:56 39.48809 3.50897 11196 ft 319 kts 70°
2026-04-15 15:57 39.49461 3.53597 10869 ft 310 kts 70°
2026-04-15 15:57 39.50094 3.56219 10560 ft 301 kts 70°
2026-04-15 15:57 39.50710 3.58775 10296 ft 292 kts 70°
2026-04-15 15:57 39.51307 3.61255 10159 ft 286 kts 70°
2026-04-15 15:58 39.51906 3.63739 9851 ft 292 kts 70°
2026-04-15 15:58 39.52512 3.66256 9543 ft 293 kts 69°
2026-04-15 15:58 39.53112 3.68757 9230 ft 288 kts 69°
2026-04-15 15:58 39.53697 3.71205 8928 ft 281 kts 69°
2026-04-15 15:59 39.54268 3.73595 8643 ft 276 kts 69°
2026-04-15 15:59 39.54836 3.75969 8376 ft 277 kts 69°
2026-04-15 15:59 39.55409 3.78364 8097 ft 279 kts 69°
2026-04-15 15:59 39.55984 3.80771 7820 ft 280 kts 69°
2026-04-15 16:00 39.56561 3.83189 7519 ft 281 kts 69°
2026-04-15 16:00 39.57135 3.85599 7228 ft 278 kts 69°
2026-04-15 16:00 39.57698 3.87970 6931 ft 272 kts 69°
2026-04-15 16:00 39.58247 3.90288 6653 ft 266 kts 69°
2026-04-15 16:01 39.58786 3.92559 6360 ft 261 kts 69°
2026-04-15 16:01 39.59313 3.94783 6077 ft 255 kts 70°
2026-04-15 16:01 39.59831 3.96969 5704 ft 254 kts 70°
2026-04-15 16:01 39.60345 3.99141 5412 ft 250 kts 70°
2026-04-15 16:02 39.60850 4.01277 5137 ft 245 kts 70°
2026-04-15 16:02 39.61346 4.03375 4884 ft 241 kts 70°
2026-04-15 16:02 39.61833 4.05440 4628 ft 237 kts 70°
2026-04-15 16:02 39.62299 4.07415 4400 ft 227 kts 70°
2026-04-15 16:03 39.62754 4.09348 4172 ft 221 kts 70°
2026-04-15 16:03 39.63191 4.11206 3930 ft 210 kts 70°
2026-04-15 16:03 39.63609 4.12983 3699 ft 202 kts 70°
2026-04-15 16:03 39.64006 4.14676 3589 ft 194 kts 70°
2026-04-15 16:04 39.64428 4.16339 3502 ft 193 kts 60°
2026-04-15 16:04 39.65278 4.17603 3423 ft 183 kts 31°
2026-04-15 16:04 39.66429 4.18148 3420 ft 174 kts
2026-04-15 16:04 39.67641 4.18448 3398 ft 180 kts
2026-04-15 16:05 39.68898 4.18712 3249 ft 186 kts
2026-04-15 16:05 39.70172 4.18954 3068 ft 183 kts
2026-04-15 16:05 39.71417 4.19184 2944 ft 176 kts
2026-04-15 16:05 39.72635 4.19406 2766 ft 179 kts
2026-04-15 16:06 39.73863 4.19630 2547 ft 177 kts
2026-04-15 16:06 39.75077 4.19852 2319 ft 175 kts
2026-04-15 16:06 39.76285 4.20072 2079 ft 176 kts
2026-04-15 16:06 39.77484 4.20291 1843 ft 173 kts
2026-04-15 16:07 39.78656 4.20506 1628 ft 166 kts
2026-04-15 16:07 39.79750 4.20707 1395 ft 151 kts
2026-04-15 16:07 39.81586 4.21042 1071 ft 123 kts
2026-04-15 16:08 39.82437 4.21196 910 ft 119 kts
2026-04-15 16:08 39.83252 4.21325 729 ft 117 kts
2026-04-15 16:08 39.84064 4.21450 567 ft 117 kts
2026-04-15 16:08 39.84895 4.21585 400 ft 123 kts
2026-04-15 16:09 39.85729 4.21757 297 ft 114 kts
2026-04-15 16:09 39.86391 4.21891 302 ft 75 kts
2026-04-15 16:09 39.86700 4.21957 302 ft 27 kts 13°
2026-04-15 16:09 39.86857 4.22075 298 ft 26 kts 37°
2026-04-15 16:10 39.86933 4.22221 298 ft 11 kts 97°
2026-04-15 16:10 39.86921 4.22328 296 ft 13 kts 98°
2026-04-15 16:10 39.86871 4.22400 293 ft 8 kts 181°
2026-04-15 16:10 39.86825 4.22392 293 ft 8 kts 189°
2026-04-15 16:11 39.86791 4.22384 293 ft 5 kts 189°
2026-04-15 16:11 39.86785 4.22383 292 ft 0 kts 189°
2026-04-15 16:14 39.86767 4.22379 291 ft 11 kts 189°
2026-04-15 16:14 39.86678 4.22360 289 ft 13 kts 189°
2026-04-15 16:15 39.86599 4.22345 288 ft 8 kts 178°
2026-04-15 16:15 39.86582 4.22381 287 ft 6 kts 108°
2026-04-15 16:15 39.86575 4.22428 285 ft 0 kts 99°